Tracking 34305 objects as of 6-Jun-2026
HD Live streaming from Space Station
objects crossing your sky now

QIANFAN-139

Track QIANFAN-139 now!
10-day predictions
QIANFAN-139 is classified as:


NORAD ID: 69085
Int'l Code: 2026-104N
Perigee: 825.6 km
Apogee: 831.9 km
Inclination: 89.0 °
Period: 101.3 minutes
Semi major axis: 7199 km
RCS: Unknown
Launch date: May 12, 2026
Source: People's Republic of China (PRC)
Launch site: Taiyaun Space Center, China (TSC)
Your satellite tracking list
Your tracking list is empty




NASA's NSSDC Master Catalog

Two Line Element Set (TLE):
1 69085U 26104N   26156.87169419  .00000134  00000-0  55155-4 0  9999
2 69085  88.9864 342.8982 0004337 135.7000 224.4539 14.21102561  3489
Source of the keplerian elements: AFSPC